Regional Weather Roundup
Issued by NWS

Home | Current Version | Previous Version | Text Only | Print | Product List | Glossary On
Versions: 1 2 3 4 5 6 7 8 9 10 11 12 13 14 15 16 17 18 19 20 21 22 23 24 25 26 27 28 29 30 31 32 33 34 35 36 37 38 39 40 41 42 43 44 45 46 47 48 49 50
000
ASUS45 KABQ 251210
RWRNM
NEW MEXICO REGIONAL WEATHER ROUNDUP
NATIONAL WEATHER SERVICE ALBUQUERQUE NM
600 AM MDT TUE APR 25 2017

NOTE: "FAIR" MEANS FEW OR NO CLOUDS BELOW 12,000 FEET AGL WITH NO
       SIGNIFICANT WEATHER OR OBSTRUCTIONS TO VISION.

      THIS PRODUCT IS RELEASED AS TWO VERSIONS.  ONE VERSION NEAR
      THE TOP OF THE HOUR CONTAINING PRELIMINARY DATA FROM ALBUQUERQUE
      AND OTHER STATIONS.  A FINAL VERSION WITH ADDITIONAL DATA IS
      ISSUED ABOUT 10 MINUTES AFTER THE HOUR.

NMZ501-503-504-510>518-251300-
NORTHWEST PLATEAU/NORTHCENTRAL MOUNTAINS

CITY           SKY/WX    TMP DP  RH WIND       PRES   REMARKS
FARMINGTON     CLOUDY    50  29  44 SW6       29.63R
6HR MIN TEMP:  49; 6HR MAX TEMP:  60;

LOS ALAMOS     CLOUDY    49  26  40 W14G25    29.73R
SANTA FE       CLOUDY    53  29  39 W20G28    29.68F
6HR MIN TEMP:  53; 6HR MAX TEMP:  61; 6HR PCP: TRACE;

TAOS             N/A     46  19  34 SE5       29.68S
ANGEL FIRE     FAIR      44  20  39 W33G46    29.63F

$$
NMZ402-403-502-505>509-251300-
WESTCENTRAL MOUNTAINS/SOUTHWEST MOUNTAINS

CITY           SKY/WX    TMP DP  RH WIND       PRES   REMARKS
GALLUP         LGT RAIN  42  39  89 SW8       29.77S
6HR MIN TEMP:  42; 6HR MAX TEMP:  56; 6HR PCP:  0.04;

GRANTS         CLOUDY    47  32  55 W17G26    29.78R
SILVER CITY    FAIR      52  15  22 N7        29.75F

$$
NMZ407-409-411-412-251300-
SOUTHERN DESERTS

CITY           SKY/WX    TMP DP  RH WIND       PRES   REMARKS
DEMING         FAIR      63  27  25 SW10      29.72S
6HR MIN TEMP:  63; 6HR MAX TEMP:  70;

LAS CRUCES     FAIR      65  22  19 W12       29.73F
HOLLOMAN AFB   FAIR      70  19  14 SW20G29   29.72R
ALAMOGORDO     FAIR      68  23  18 S9        29.70F
T OR C         FAIR      63  18  17 S10       29.67R
6HR MIN TEMP:  63; 6HR MAX TEMP:  70;


$$
NMZ519>523-251300-
CENTRAL VALLEYS/CENTRAL HIGHLANDS

CITY           SKY/WX    TMP DP  RH WIND       PRES   REMARKS
ALBUQUERQUE    MOCLDY    60  20  21 SW10      29.67F
6HR MIN TEMP:  60; 6HR MAX TEMP:  67;

DOUBLE EAGLE   CLOUDY    55  30  38 NW16      29.69
MORIARTY ARPT  CLOUDY    58  24  26 SW13G30   29.69F
6HR MIN TEMP:  57; 6HR MAX TEMP:  66;

CLINES CORNERS MOCLDY    50  21  32 W23G32    29.69F
6HR MIN TEMP:  50; 6HR MAX TEMP:  59;

BELEN          CLOUDY    56  25  29 W6        29.69R
6HR MIN TEMP:  56; 6HR MAX TEMP:  63;

SOCORRO        CLOUDY    60  20  21 CALM      29.67R
6HR MIN TEMP:  60; 6HR MAX TEMP:  71;


$$
NMZ524>526-539-540-251300-
SOUTHCENTRAL MOUNTAINS

CITY           SKY/WX    TMP DP  RH WIND       PRES   REMARKS
RUIDOSO        FAIR      57  14  18 SW25G37   29.70F

$$
NMZ527>531-251300-
NORTHEAST HIGHLANDS/NORTHEAST PLAINS

CITY           SKY/WX    TMP DP  RH WIND       PRES   REMARKS
LAS VEGAS      FAIR      47  23  38 W9        29.63F
6HR MIN TEMP:  47; 6HR MAX TEMP:  59;

RATON          FAIR      50  23  34 W8        29.56S
6HR MIN TEMP:  49; 6HR MAX TEMP:  57;

CLAYTON        FAIR      56  26  31 NW14      29.50R
6HR MIN TEMP:  50; 6HR MAX TEMP:  62;


$$
NMZ532>537-251300-
EASTCENTRAL PLAINS

CITY           SKY/WX    TMP DP  RH WIND       PRES   REMARKS
SANTA ROSA     FAIR      61  23  23 W17G23    29.56F
TUCUMCARI      FAIR      64  24  21 W18       29.48R
6HR MIN TEMP:  63; 6HR MAX TEMP:  71;

CANNON AFB     FAIR      56  21  25 W10       29.55F
6HR MIN TEMP:  53; 6HR MAX TEMP:  69;

CLOVIS AIRPORT FAIR      59  21  23 W13       29.55S

$$
NMZ028-029-538-251300-
SOUTHEAST PLAINS

CITY           SKY/WX    TMP DP  RH WIND       PRES   REMARKS
ROSWELL        FAIR      64  20  18 SW10        N/A
6HR MIN TEMP:  61; 6HR MAX TEMP:  76;

ARTESIA        FAIR      70  21  16 SW15      29.57F
CARLSBAD       FAIR      74  20  13 W22G32    29.54F
6HR MIN TEMP:  74; 6HR MAX TEMP:  82;

HOBBS          CLEAR     66  18  15 SW15      29.59S


$$




USA.gov is the U.S. government's official web portal to all federal, state and local government web resources and services.